Regional Weather Roundup
Issued by NWS Newport/Morehead, NC

Current Version | Previous Version | Text Only | Print | Product List | Glossary On
Versions: 1 2 3 4 5 6 7 8 9 10 11 12 13 14 15 16 17 18 19 20 21 22 23 24 25 26 27 28 29 30 31 32 33 34 35 36 37 38 39 40 41 42 43 44 45 46 47 48 49 50
000 ASUS42 KMHX 250710 RWRMHX WEATHER ROUNDUP FOR EASTERN NORTH CAROLINA NATIONAL WEATHER SERVICE NEWPORT/MOREHEAD CITY NC 200 AM EST SUN JAN 25 2015 NOTE: "FAIR" INDICATES FEW OR NO CLOUDS BELOW 12,000 FEET WITH NO SIGNIFICANT WEATHER AND/OR OBSTRUCTIONS TO VISIBILITY NCZ015>017-031-032-045>047-102-103-250800- NORTH COAST CITY SKY/WX TMP DP RH WIND PRES REMARKS EDENTON CLEAR 39 31 72 W6 29.82R ELIZABETH CITY CLEAR 38 28 67 W13 29.80R KITTY HAWK SUNNY 41 31 67 W13G23 29.78R MANTEO CLEAR 41 30 65 W10G21 29.81R $$ NCZ045>047-081-094-103-104-250800- CENTRAL COAST CITY SKY/WX TMP DP RH WIND PRES REMARKS FRISCO CLEAR 44 33 65 NW18G25 29.82R SWANQUARTER NOT AVBL $$ NCZ095-097-098-100-101-250800- SOUTHERN COAST CITY SKY/WX TMP DP RH WIND PRES REMARKS BEAUFORT CLEAR 42 36 79 NW13 29.85R CEDAR ISLAND NOT AVBL JACKSONVILLE CLEAR 39 35 86 W8 29.87R PINEY ISLAND N/A N/A N/A N/A MISG 29.84R WILMINGTON CLEAR 40 38 93 W7 29.88R $$ NCZ011>013-027>030-043-044-078>080-089-090>093-098-250800- COASTAL PLAIN CITY SKY/WX TMP DP RH WIND PRES REMARKS AHOSKIE CLEAR 34 27 75 CALM 29.83R CLINTON CLEAR 32 32 100 CALM 29.89R ELIZABETHTOWN CLEAR 37 35 93 CALM 29.88R GOLDSBORO CLEAR 37 35 94 SW5 29.85R GREENVILLE CLEAR 37 30 75 CALM 29.87R HAVELOCK CLEAR 39 35 86 W8 29.87R KENANSVILLE CLEAR 31 31 100 CALM 29.88R FOG KINSTON CLEAR 37 30 78 CALM 29.87R NEW BERN CLEAR 41 33 73 W6 29.87R RICHLANDS CLEAR 34 30 86 CALM 29.88R ROCKY MOUNT CLEAR 39 26 59 W3 29.85R WASHINGTON CLEAR 38 29 69 W3 29.85R WHITEVILLE CLEAR 39 36 87 CALM 29.88S $$ AMZ130-135-150-152-154-156-158-170-250-252-270-ANZ085-086-088-633-658-670-250800- MARINE OBSERVATIONS STATION/POSITION TIME TEMP WIND PRES WAVE SWELL AIR SEA DIR/SP/G HT/PER HT/PER (UTC) (F) (DEG/KT/KT) (MB) (FT/S) (FT/S) CHESAPEAKE LIGHT 0600 41 280/ 23/ 26 1007.3 64 E VA BEACH 0700 45 53 290/ 21/ 25 1006.6 8/11 3/11 DUCK 0700 43 280/ 16/ 19 1007.9 2 E DUCK 0700 43 N/A 3/11 2/11 10 NE DUCK 0700 45 N/A 5/11 2/11 OREGON INLET 0700 47 270/ 11/ 15 1009.0 13E OREGON INLT 0700 46 N/A 6/11 3/11 HATTERAS CG 0700 56 310/ 22/ 25 1009.8 DIAMOND BUOY 0700 51 71 300/ 27/ 33 1008.6 8/11 5/11 17 S OCRACOKE NOT AVBL CAPE LOOKOUT 0700 46 300/ 14/ 18 1010.5 BEAUFORT LAB 0700 51 320/ 5/ 9 1009.7 27 SE WRIGHTSVLE NOT AVBL 5 SE WRIGHTSVLE 0600 48 51 290/ 14/ 17 1011.0 225 S CAPE HAT 0609 63 72 300/ 17/ 23 1011.1 13/10 10/10 41 SE CHARLESTON 0700 54 69 300/ 23/ 27 1012.2 7/ 8 3/10 $$

USA.gov is the U.S. government's official web portal to all federal, state and local government web resources and services.